TimeCDT,TemperatureF,Dew PointF,Humidity,Sea Level PressureIn,VisibilityMPH,Wind Direction,Wind SpeedMPH,Gust SpeedMPH,PrecipitationIn,Events,Conditions,WindDirDegrees,DateUTC
12:58 AM,55.8,50.7,83,29.80,10.0,NE,10.4,-,N/A,,Clear,40,2013-04-07 05:58:00
1:58 AM,53.8,51.1,91,29.79,10.0,NE,8.1,-,N/A,,Clear,50,2013-04-07 06:58:00
2:58 AM,56.1,54.5,94,29.78,10.0,East,5.8,-,N/A,,Clear,80,2013-04-07 07:58:00
3:58 AM,55.2,55.0,99,29.77,10.0,East,6.9,-,N/A,,Clear,80,2013-04-07 08:58:00
4:58 AM,56.7,56.7,100,29.75,10.0,East,10.4,-,N/A,,Clear,90,2013-04-07 09:58:00
5:58 AM,55.2,55.2,100,29.75,10.0,East,8.1,-,N/A,,Clear,100,2013-04-07 10:58:00
6:03 AM,55.4,55.4,100,29.77,9.0,East,8.1,-,N/A,,Clear,100,2013-04-07 11:03:00
6:23 AM,55.4,55.4,100,29.76,8.0,East,8.1,-,N/A,,Clear,100,2013-04-07 11:23:00
6:33 AM,55.4,55.4,100,29.76,8.0,East,9.2,-,N/A,,Clear,100,2013-04-07 11:33:00
6:38 AM,55.4,55.4,100,29.77,8.0,East,9.2,-,N/A,,Clear,100,2013-04-07 11:38:00
6:53 AM,55.4,55.4,100,29.77,8.0,East,8.1,-,N/A,,Clear,100,2013-04-07 11:53:00
6:58 AM,54.9,54.9,100,29.75,7.0,East,9.2,-,N/A,,Clear,100,2013-04-07 11:58:00
7:03 AM,55.4,55.4,100,29.77,7.0,East,9.2,-,N/A,,Clear,100,2013-04-07 12:03:00
7:58 AM,55.8,55.8,100,29.76,7.0,East,9.2,-,N/A,,Clear,100,2013-04-07 12:58:00
8:58 AM,58.6,58.6,100,29.77,10.0,SE,11.5,-,N/A,,Clear,130,2013-04-07 13:58:00
9:43 AM,60.8,60.8,100,29.79,10.0,SE,13.8,-,N/A,,Mostly Cloudy,140,2013-04-07 14:43:00
9:58 AM,61.7,59.9,94,29.76,10.0,SE,13.8,-,N/A,,Scattered Clouds,140,2013-04-07 14:58:00
10:58 AM,68.0,59.4,74,29.75,10.0,SSE,15.0,-,N/A,,Clear,160,2013-04-07 15:58:00
11:58 AM,72.5,59.9,64,29.74,10.0,SSE,18.4,25.3,N/A,,Clear,160,2013-04-07 16:58:00
12:58 PM,75.0,59.5,58,29.71,10.0,SSE,17.3,-,N/A,,Partly Cloudy,150,2013-04-07 17:58:00
1:58 PM,77.7,60.3,55,29.68,10.0,SSE,15.0,23.0,N/A,,Clear,150,2013-04-07 18:58:00
2:58 PM,79.9,59.4,49,29.63,10.0,SSE,20.7,26.5,N/A,,Clear,150,2013-04-07 19:58:00
3:58 PM,81.9,60.3,48,29.61,10.0,SSE,19.6,25.3,N/A,,Clear,150,2013-04-07 20:58:00
4:58 PM,82.8,60.8,47,29.58,10.0,SSE,17.3,-,N/A,,Clear,150,2013-04-07 21:58:00
5:58 PM,81.7,61.3,50,29.57,10.0,ESE,19.6,-,N/A,,Clear,120,2013-04-07 22:58:00
6:58 PM,78.3,62.1,57,29.57,10.0,ESE,20.7,-,N/A,,Clear,110,2013-04-07 23:58:00
7:58 PM,72.9,61.9,68,29.57,10.0,ESE,17.3,-,N/A,,Clear,110,2013-04-08 00:58:00
8:58 PM,69.3,61.9,77,29.59,10.0,ESE,19.6,25.3,N/A,,Clear,110,2013-04-08 01:58:00
9:58 PM,66.4,62.1,86,29.60,10.0,ESE,17.3,-,N/A,,Clear,110,2013-04-08 02:58:00
10:58 PM,65.1,62.1,90,29.59,10.0,ESE,17.3,-,N/A,,Clear,110,2013-04-08 03:58:00
11:58 PM,64.0,62.4,94,29.58,10.0,ESE,18.4,-,N/A,,Clear,120,2013-04-08 04:58:00